Branson, MO

1:00 PM CDT on October 18, 2017 (GMT -0500)
Branson

Weather History for KBBG - March, 2013

Change the Weather History Date:

Thursday, March 14, 2013

  Actual Average (KHRO) Record (KHRO)
Temperature  
Mean Temperature 52 °F -  
Max Temperature 68 °F 59 °F 83 °F (2012)
Min Temperature 35 °F 36 °F 11 °F (1950)
Degree Days  
Heating Degree Days 14    
Growing Degree Days 2 (Base 50)    
Moisture  
Dew Point 27 °F    
Average Humidity 44    
Maximum Humidity 60    
Minimum Humidity 26    
Precipitation  
Precipitation 0.00 in - - ()
Sea Level Pressure  
Sea Level Pressure 30.24 in    
Wind  
Wind Speed 6 mph (South)    
Max Wind Speed 17 mph    
Max Gust Speed 25 mph    
Visibility 10 miles    
Events      
Averages and records for this station are not official NWS values.
T = Trace of Precipitation, MM = Missing Value Source: NWS Daily Summary

Daily Weather History Graph

Daily Weather History Graph

Search for Another Location

Airport or City:

Trip Planner

Search our weather history database for the weather conditions in past years. The results will help you decide how hot, cold, wet, or windy it might be!

Date:

Astronomy

Mar. 14, 2013 Rise Set
Actual Time 7:24 AM CDT 7:19 PM CDT
Civil Twilight 6:59 AM CDT 7:45 PM CDT
Nautical Twilight 6:29 AM CDT 8:15 PM CDT
Astronomical Twilight 5:58 AM CDT 8:45 PM CDT
Moon 8:44 AM CDT (3/14) 10:29 PM CDT (3/14)
Length of Visible Light 12h 46m
Length of Day
11h 54m
Waxing Crescent, 9% of the Moon is Illuminated
Mar 14
Waxing Crescent
Mar 19
First Quarter
Mar 27
Full
Apr 2
Last Quarter
Apr 10
New

Hourly Weather History & Observations

Time (CDT) Temp. Windchill Dew Point Humidity Pressure Visibility Wind Dir Wind Speed Gust Speed Precip Events Conditions
12:15 AM 35.6 °F 32.8 °F 23.0 °F 60% 30.37 in 10.0 mi SSE 3.5 mph - N/A   Scattered Clouds
12:35 AM 35.6 °F - 21.2 °F 56% 30.37 in 10.0 mi Calm Calm - N/A   Clear
12:55 AM 35.6 °F 32.8 °F 21.2 °F 56% 30.37 in 10.0 mi SSE 3.5 mph - N/A   Clear
1:15 AM 35.6 °F 32.8 °F 23.0 °F 60% 30.36 in 10.0 mi ESE 3.5 mph - N/A   Partly Cloudy
1:35 AM 37.4 °F 33.8 °F 19.4 °F 48% 30.36 in 10.0 mi ESE 4.6 mph - N/A   Clear
1:55 AM 37.4 °F 32.8 °F 19.4 °F 48% 30.35 in 10.0 mi ESE 5.8 mph - N/A   Clear
2:35 AM 37.4 °F 32.1 °F 19.4 °F 48% 30.34 in 10.0 mi SE 6.9 mph - N/A   Partly Cloudy
2:55 AM 35.6 °F 30.7 °F 21.2 °F 56% 30.34 in 10.0 mi SE 5.8 mph - N/A   Scattered Clouds
3:15 AM 37.4 °F 34.9 °F 19.4 °F 48% 30.34 in 10.0 mi SE 3.5 mph - N/A   Scattered Clouds
3:55 AM 37.4 °F 31.4 °F 19.4 °F 48% 30.32 in 10.0 mi SSE 8.1 mph - N/A   Mostly Cloudy
4:15 AM 37.4 °F 31.4 °F 19.4 °F 48% 30.31 in 10.0 mi SE 8.1 mph - N/A   Mostly Cloudy
4:35 AM 35.6 °F 30.7 °F 19.4 °F 52% 30.31 in 10.0 mi SE 5.8 mph - N/A   Mostly Cloudy
4:55 AM 35.6 °F 29.9 °F 19.4 °F 52% 30.30 in 10.0 mi SE 6.9 mph - N/A   Scattered Clouds
5:15 AM 35.6 °F 31.7 °F 17.6 °F 48% 30.31 in 10.0 mi ESE 4.6 mph - N/A   Partly Cloudy
5:35 AM 35.6 °F 30.7 °F 19.4 °F 52% 30.31 in 10.0 mi SE 5.8 mph - N/A   Clear
5:55 AM 35.6 °F 30.7 °F 19.4 °F 52% 30.31 in 10.0 mi SE 5.8 mph - N/A   Clear
6:15 AM 35.6 °F 29.2 °F 17.6 °F 48% 30.30 in 10.0 mi SSE 8.1 mph - N/A   Clear
6:45 AM 35.6 °F 28.6 °F 17.6 °F 48% 30.30 in 10.0 mi SSE 9.2 mph - N/A   Scattered Clouds
7:45 AM 35.6 °F 29.2 °F 19.4 °F 52% 30.30 in 10.0 mi SSE 8.1 mph - N/A   Scattered Clouds
8:46 AM 39.2 °F 34.2 °F 19.4 °F 45% 30.29 in 10.0 mi SSE 6.9 mph - N/A   Scattered Clouds
9:45 AM 46.4 °F 44.3 °F 23.0 °F 40% 30.28 in 10.0 mi SSE 4.6 mph - N/A   Scattered Clouds
10:50 AM 57.2 °F - 26.6 °F 31% 30.26 in 10.0 mi SW 6.9 mph - N/A   Scattered Clouds
11:49 AM 62.6 °F - 30.2 °F 30% 30.23 in 10.0 mi SW 15.0 mph 19.6 mph N/A   Scattered Clouds
12:45 PM 64.4 °F - 32.0 °F 30% 30.21 in 10.0 mi WSW 11.5 mph 20.7 mph N/A   Scattered Clouds
1:45 PM 66.2 °F - 32.0 °F 28% 30.19 in 10.0 mi West 13.8 mph 24.2 mph N/A   Mostly Cloudy
2:53 PM 66.2 °F - 32.0 °F 28% 30.16 in 10.0 mi WSW 16.1 mph 23.0 mph N/A   Mostly Cloudy
3:46 PM 68.0 °F - 32.0 °F 26% 30.14 in 10.0 mi West 12.7 mph 24.2 mph N/A   Mostly Cloudy
4:50 PM 68.0 °F - 32.0 °F 26% 30.14 in 10.0 mi WSW 15.0 mph 23.0 mph N/A   Mostly Cloudy
5:45 PM 68.0 °F - 35.6 °F 30% 30.12 in 10.0 mi WSW 17.3 mph 25.3 mph N/A   Partly Cloudy
6:45 PM 66.2 °F - 35.6 °F 32% 30.12 in 10.0 mi WSW 15.0 mph - N/A   Clear
8:45 PM 62.6 °F - 35.6 °F 37% 30.12 in 10.0 mi WSW 5.8 mph - N/A   Clear
8:55 PM 62.6 °F - 37.4 °F 39% 30.12 in 10.0 mi WSW 5.8 mph - N/A   Partly Cloudy
9:15 PM 60.8 °F - 37.4 °F 42% 30.13 in 10.0 mi WSW 5.8 mph - N/A   Clear
9:35 PM 60.8 °F - 37.4 °F 42% 30.14 in 10.0 mi WSW 5.8 mph - N/A   Mostly Cloudy
9:55 PM 59.0 °F - 37.4 °F 45% 30.14 in 10.0 mi WSW 4.6 mph - N/A   Overcast
10:15 PM 59.0 °F - 37.4 °F 45% 30.14 in 10.0 mi WSW 4.6 mph - N/A   Mostly Cloudy
10:35 PM 59.0 °F - 37.4 °F 45% 30.14 in 10.0 mi WSW 3.5 mph - N/A   Overcast
10:55 PM 59.0 °F - 37.4 °F 45% 30.13 in 10.0 mi WSW 3.5 mph - N/A   Mostly Cloudy
11:15 PM 57.2 °F - 37.4 °F 48% 30.13 in 10.0 mi SW 3.5 mph - N/A   Mostly Cloudy
11:35 PM 57.2 °F - 37.4 °F 48% 30.13 in 10.0 mi SW 6.9 mph - N/A   Mostly Cloudy
11:55 PM 59.0 °F - 37.4 °F 45% 30.12 in 10.0 mi SW 8.1 mph - N/A   Mostly Cloudy